2018-111C (43878 NORAD) Tracking and Keplerian Element Data

This shows tracking and keplerian element data for the satellite.

Feedback or suggestion? Click here.




ElementValue
Catalog43878
Name2018-111C
Epoch Orbit45
Epoch Day364.11400828
Epoch Year2018
RAAN269.5497
Inclination97.5462
Eccentricity0.0115713
Argument of Perigee38.1317
Mean Anonmoly60.5234
Mean Motion15.71210018
Decay Rate-6.97E-06
L11 43878U 18111C 18364.11400828 -.00000697 22015-5 00000+0 0 9995
L22 43878 97.5462 269.5497 0115713 38.1317 60.5234 15.71210018 453

Live tracking and technical data element details for 2018-111C (NORAD 43878). 2018-111C can be tracked NOW for your location showing map with azimuth and elevation plus other details from your city location.

Track the satellite on the map from your city or location and see movement details for azimuth, elevation, latitude, longitude, range, height, and movement on the map or in text.







IsCatalogInMostPopularTable: catalog: 43878, numindb: 73
Update: records affected: 1



GetName: 43878 2018-111C

Hit Count: updated at: Sun, 21 Jul 2019 15:08:58 GMT